Home   Weather   Weimar   Past weeks

Flag for Germany Past Weather in Weimar, Thuringia, Germany — Yesterday and Last 2 Weeks

Now
48 °F

Light rain. Mostly cloudy.


Feels Like: 40 °F
Forecast: 42 / 49 °F
Wind: 28 mph from Southwest

Location: Erfurt-Bindersleben

Current Time: Feb 22, 2017 at 6:46:50 pm

Latest Report: Feb 22, 2017 at 6:20 pm


Visibility: N/A

Pressure: 29.59 "Hg

Humidity: 87%

Dew Point: 45 °F

Location of WeimarLocation

Past Weather in Weimar — Graph

°F

Weimar Temperature Yesterday

Maximum temperature yesterday: 48 °F (at 1:50 am)
Minimum temperature yesterday: 39 °F (at 10:20 pm)
Average temperature yesterday: 46 °F

High & Low Weather Summary for the Past Weeks

 TemperatureHumidityPressure
High54 °F (Feb 16, 3:50 pm)100% (Feb 7, 5:20 pm)30.54 "Hg (Feb 7, 5:20 pm)
Low21 °F (Feb 9, 7:20 am)61% (Feb 15, 5:20 pm)29.59 "Hg (Feb 22, 3:50 pm)
Average34 °F89%30.23 "Hg
* Reported Feb 7 5:20 pm — Feb 22 5:50 pm, Weimar, Weather by CustomWeather, © 2017

Note: Actual official high and low records may vary slightly from our data, if they occured in-between our weather recording intervals... More about our weather records

Advertising

Weimar Weather History for the Previous 24 Hours

Scroll right to see more
 ConditionsComfort  
Time TempWeatherWind HumidityBarometerVisibility
5:50 pm
Wed, Feb 22
48 °FLight rain. Partly cloudy.24 mph87%29.59 "HgN/A
5:20 pm48 °FLight rain. Broken clouds.26 mph87%29.59 "HgN/A
4:50 pm48 °FLight rain. Broken clouds.28 mph87%29.59 "HgN/A
4:20 pm50 °FLight rain. Broken clouds.29 mph76%29.62 "HgN/A
3:50 pm50 °FBroken clouds.30 mph82%29.59 "HgN/A
3:20 pm50 °FBroken clouds.28 mph82%29.62 "HgN/A
2:50 pm50 °FBroken clouds.31 mph82%29.62 "HgN/A
2:20 pm50 °FBroken clouds.31 mph82%29.62 "HgN/A
1:50 pm52 °FBroken clouds.30 mph77%29.62 "HgN/A
1:20 pm50 °FBroken clouds.30 mph82%29.62 "HgN/A
12:50 pm50 °FPartly sunny.33 mph82%29.65 "HgN/A
12:20 pm50 °FPartly sunny.26 mph76%29.65 "HgN/A
11:50 am50 °FPartly sunny.25 mph76%29.65 "HgN/A
11:20 am50 °FPartly sunny.22 mph76%29.68 "HgN/A
10:50 am50 °FPartly sunny.24 mph76%29.68 "HgN/A
10:20 am50 °FPartly sunny.30 mph76%29.68 "HgN/A
9:50 am50 °FLight rain. Partly sunny.29 mph76%29.68 "HgN/A
9:20 am50 °FLight rain. Partly sunny.24 mph82%29.68 "HgN/A
8:50 am50 °FPartly sunny.25 mph82%29.68 "HgN/A
8:20 am50 °FLight rain. Partly sunny.21 mph82%29.68 "HgN/A
7:50 am50 °FLight rain. Broken clouds.23 mph82%29.68 "HgN/A
7:20 am50 °FMore clouds than sun.21 mph82%29.68 "HgN/A
6:50 am48 °FLight rain. Passing clouds.14 mph94%29.68 "HgN/A
6:20 am48 °FPassing clouds.15 mph94%29.71 "HgN/A
5:50 am48 °FPassing clouds.14 mph94%29.71 "HgN/A
5:20 am48 °FPassing clouds.16 mph94%29.71 "HgN/A
4:50 am48 °FPartly cloudy.17 mph87%29.74 "HgN/A
4:20 am48 °FPassing clouds.20 mph87%29.74 "HgN/A
3:50 am46 °FLight rain. Partly cloudy.17 mph93%29.74 "HgN/A
3:20 am46 °FLight rain. Mostly cloudy.15 mph93%29.77 "HgN/A
2:50 am46 °FLight rain. Mostly cloudy.17 mph93%29.80 "HgN/A
2:20 am46 °FMostly cloudy.15 mph87%29.80 "HgN/A
1:50 am46 °FPassing clouds.16 mph87%29.83 "HgN/A
1:20 am45 °FPassing clouds.13 mph93%29.83 "HgN/A
12:50 am43 °FPassing clouds.8 mph93%29.86 "HgN/A
12:20 am43 °FPassing clouds.9 mph87%29.89 "HgN/A
11:50 pm
Tue, Feb 21
41 °FPassing clouds.9 mph93%29.89 "HgN/A
11:20 pm41 °FClear.9 mph87%29.92 "Hg10 mi
10:50 pm41 °FClear.8 mph87%29.92 "Hg10 mi
10:20 pm39 °FClear.8 mph93%29.92 "Hg10 mi
9:50 pm41 °FClear.7 mph87%29.92 "Hg10 mi
9:20 pm41 °FPassing clouds.6 mph87%29.92 "HgN/A
8:50 pm41 °FPassing clouds.6 mph87%29.92 "HgN/A
8:20 pm41 °FPassing clouds.6 mph81%29.92 "HgN/A
7:50 pm45 °FPassing clouds.3 mph76%29.92 "HgN/A
7:20 pm45 °FPassing clouds.6 mph76%29.92 "HgN/A
6:50 pm45 °FPassing clouds.6 mph81%29.92 "HgN/A
6:20 pm45 °FPassing clouds.5 mph81%29.92 "HgN/A
Weather by CustomWeather, © 2017

See weather overviewHow to use our weather pages